Regional Weather Roundup
Issued by NWS Charleston, SC

Current Version | Previous Version | Graphics & Text | Print | Product List | Glossary On
Versions: 1 2 3 4 5 6 7 8 9 10 11 12 13 14 15 16 17 18 19 20 21 22 23 24 25 26 27 28 29 30 31 32 33 34 35 36 37 38 39 40 41 42 43 44 45 46 47 48 49 50
000 ASUS42 KCHS 230812 RWRCHS REGIONAL WEATHER ROUNDUP NATIONAL WEATHER SERVICE CHARLESTON SC 400 AM EDT WED AUG 23 2017 NOTE: "FAIR" INDICATES FEW OR NO CLOUDS BELOW 12,000 FEET WITH NO SIGNIFICANT WEATHER AND/OR OBSTRUCTIONS TO VISIBILITY. NOT ALL STATIONS ARE QUALITY CONTROLLED. USE DATA WITH CAUTION... ESPECIALLY DEWPOINT OBSERVATIONS. SCZ027-030-031-034>040-042>050-230900- ...SOUTHEAST SOUTH CAROLINA... CITY SKY/WX TMP DP RH WIND PRES REMARKS N CHARLESTON PTCLDY 77 76 96 SW6 29.95F WATERFRONT PRK N/A 81 77 88 VRB2 29.80F JOHNS ISLAND FAIR 81 75 83 CALM 29.96S PINOPOLIS N/A 79 77 94 SW9 29.88F MONCKS CORNER FAIR 75 73 94 SW5 29.95F SUMMERVILLE FAIR 73 73 100 CALM 29.96F BEAUFORT MCAS CLEAR 78 77 96 S5 29.96F BEAUFORT ARPT FAIR 79 77 94 SW3 29.96F HILTON HEAD IS PTCLDY 79 77 94 CALM 29.97F WALTERBORO SUNNY 75 73 94 SW5 29.96F ALLENDALE NOT AVBL ...SOUTHERN MIDLANDS AND PEE DEE... CITY SKY/WX TMP DP RH WIND PRES REMARKS GEORGETOWN FAIR 73 73 100 SW3 29.96F KINGSTREE FAIR 73 73 100 CALM 29.94F ORANGEBURG CLEAR 74 72 93 SW5 29.95F BARNWELL FAIR 77 75 94 SW5 29.95F AIKEN FAIR 73 72 94 SW3 29.99F MANNING FAIR 77 68 73 CALM 29.94F COLUMBIA CLEAR 76 72 87 W3 29.92F SUMTER CLEAR 76 73 90 SW8 29.91F FLORENCE CLEAR 76 76 100 SW6 29.93F MYRTLE BEACH MOCLDY 78 75 90 W8 29.95F N MYRTLE BEACH PTCLDY 79 75 87 SW8 29.93F $$ GAZ063-065-086>088-099>101-113>116-118-119-134>141-150-230900- ...SOUTHEAST GEORGIA... CITY SKY/WX TMP DP RH WIND PRES REMARKS SAVANNAH ARPT PTCLDY 77 75 93 SW5 29.97F HUNTER AAF PTCLDY 76 75 94 SW5 29.94F FORT STEWART PTCLDY 77 73 89 SW3 29.94F STATESBORO CLEAR 77 73 87 SW3 29.96F SYLVANIA N/A 74 74 100 CALM 29.97F CLAXTON FAIR 75 74 98 CALM 29.97F FOG ...CSRA...CENTRAL AND FAR SOUTHEAST GEORGIA... CITY SKY/WX TMP DP RH WIND PRES REMARKS THOMSON CLEAR 74 73 95 W5 30.00F AUGUSTA-BUSH PTCLDY 75 73 93 E3 29.94F AUGUSTA-DANIEL CLEAR 77 72 84 SW5 29.95F SWAINSBORO FAIR 73 73 100 CALM 29.98F VIDALIA CLEAR 75 73 94 SW3 29.97F EASTMAN FAIR 75 75 100 CALM 29.99F HAZLEHURST FAIR 77 73 89 CALM 29.97F ALMA CLEAR 75 73 93 CALM 29.97F WAYCROSS CLEAR 76 73 90 SW3 29.97F JESUP FAIR 73 72 94 CALM 29.97F BAXLEY FAIR 72 72 100 CALM 29.97F BRUNSWICK PTCLDY 77 73 88 SW5 29.98F SAINT SIMONS PTCLDY 80 78 94 SW7 29.97F $$ SCZ027-028-034-036>038-045-046-048>050-GAZ119-141-230900- ...LAKE AND SUPPLEMENTAL COASTAL OBSERVATIONS... STATION/POSITION TIME TEMP WIND PRES WAVE SWELL AIR SEA DIR/SP/G HT/PER HT/PER/DIR (UTC) (F) (DEG/KT/KT) (MB) (FT/S) (FT/S/D) WINYAH BAY 0645 79 250/ 4 1015.0 LAKE MURRAY 0720 80 240/ 9/ 11 1012.9 ACE BASIN NERRS 0645 80 CALM 1015.0 FORT PULASKI 0742 80 87 280/ 5/ 5 1015.2F SAPELO ISLAND 0700 81 CALM 1015.0 $$ ANZ835-935-AMZ111-154-330-350-352-354-370-450-454-472-230900- ...C-MAN AND BUOY OBSERVATIONS... STATION/POSITION TIME TEMP WIND PRES WAVE SWELL AIR SEA DIR/SP/G HT/PER HT/PER/DIR (UTC) (F) (DEG/KT/KT) (MB) (FT/S) (FT/S/D) BUOY 41004 0750 83 84 220/ 14/ 16 1014.0F 5/10 3/130/10 BUOY 41008 0750 84 85 190/ 12/ 14 1014.3F 3/11 2/100/11 FOLLY BEACH CMAN 0800 83 240/ 9/ 12 1014.8F CAPERS NEARSHORE 0708 81 86 230/ 16/ 19 1014.4F FRIPP NEARSHORE 0708 84 220/ 12/ 16 1014.5F STATION/POSITION TIME TEMP WIND PRES WAVE SWELL AIR SEA DIR/SP/G HT/PER HT/PER/DIR (UTC) (F) (DEG/KT/KT) (MB) (FT/S) (FT/S/D) 5E ST. MARYS GA 0730 84 N/A 3/11 2/120/11 FRYING PAN BUOY 0750 83 84 230/ 14/ 17 1013.7F 4/ 9 3/130/ 9 BUOY 41025 0750 83 85 250/ 16/ 19 1013.0F 4/ 8 3/150/ 8 CAPE LOOKOUT NC 0700 82 230/ 10/ 13 1013.7F BUOY 41002 0750 82 84 160/ 6/ 6 1015.0F 3/ 8 3/110/ 8 BUOY 41010 0750 83 85 170/ 12/ 14 1014.3F 4/10 3/110/10 ST AUGUSTINE FL 0800 79 82 240/ 4/ 5 1015.1F $$

USA.gov is the U.S. government's official web portal to all federal, state and local government web resources and services.